Regional Weather Roundup
Issued by NWS Midland/Odessa, TX

Skip options and go directly to product.
Home | Oldest Version | Next Version | Current Version | All | Text Only | Save Text | Print | Product List | Glossary On

Skip product version selection by date and time.   
579
ASUS44 KMAF 160702
RWRMAF
MIDLAND AREA WEATHER ROUNDUP
NATIONAL WEATHER SERVICE MIDLAND TX
200 AM CDT WED APR 16 2014

...IN SOUTHWEST TEXAS AND SOUTHEAST NEW MEXICO...

CITY           SKY/WX    TMP DP  RH WIND       PRES   REMARKS
ALPINE         PTCLDY    48  10  21 W7        30.06F
ANDREWS        FAIR      50   8  18 S13G21    29.95F
ARTESIA        MOCLDY    50   7  17 S14       29.91F
BIG SPRING     CLEAR     54  14  20 S17       29.99F
CARLSBAD       CLOUDY    53   7  15 SE14      29.90F
DRYDEN           N/A     53  15  22 E7        29.99F
FORT STOCKTON  CLOUDY    52  15  23 S13       29.98R
GUAD PASS      MOCLDY    54   1  11 SW12      29.98F
HOBBS          MOCLDY    48   7  18 S14       29.94F
MARFA          PTCLDY    37   3  23 N5        30.04F WCI  34
MIDLAND AIRPK  PTCLDY    53  11  19 S13       29.97F
MIDLAND INTL   MOCLDY    50  12  21 S13       29.96F
ODESSA         MOCLDY    52  10  18 S15       29.96F
PECOS          CLOUDY    50  12  22 E5        29.92F
PRESIDIO       FAIR      59  13  16 N9        29.94F
SEMINOLE       MOCLDY    50   8  18 S14       29.95S
SNYDER         PTCLDY    49  11  21 S13       29.97F
WINK           MOCLDY    52  12  20 SE13      29.93F
$$
...OTHER STATIONS IN TEXAS...

CITY           SKY/WX    TMP DP  RH WIND       PRES   REMARKS
ABILENE        PTCLDY    51  19  28 S20       30.00F
AMARILLO       CLOUDY    51   9  18 S21       29.86S
AUSTIN         CLEAR     36  33  89 SW5       30.15R WCI  32
BROWNSVILLE    CLEAR     49  43  80 E6        30.15F
CORPUS CHRISTI CLEAR     48  38  68 SE7       30.15F
DALLAS FTW     MOCLDY    47  31  53 S8        30.10F
DEL RIO        CLEAR     53  18  25 E9        30.06F
EL PASO        PTCLDY    58   4  11 CALM      29.91F
HOUSTON INT    CLEAR     45  36  70 CALM      30.17S
LUBBOCK        MOCLDY    51   8  17 S25G33    29.91F
SAN ANGELO     CLEAR     51  18  27 S12       30.01F
SAN ANTONIO    CLEAR     50  29  44 CALM      30.14F
WACO           CLEAR     46  32  58 SE8       30.11F
WICHITA FALLS  NOT AVBL
$$
...OTHER LOCATIONS IN NEW MEXICO...

CITY           SKY/WX    TMP DP  RH WIND       PRES   REMARKS
ALAMAGORDO     PTCLDY    50   1  13 S9        29.93S
ALBUQUERQUE    MOCLDY    53   8  16 S15       29.92S
CANNON AFB     NOT AVBL
CLOVIS         CLOUDY    50   7  17 SW15      29.91F
HOLLOMAN AFB   PTCLDY    53   8  16 S10       29.92S
ROSWELL        MOCLDY    51   5  15 S15       29.89F
RUIDOSO        PTCLDY    48   5  17 SW12G17   30.03S
SANTA FE       CLEAR     42   8  24 NW10      29.92S WCI  36
TRUTH OR CONSE CLEAR     49   7  18 NW6       29.94R
TUCUMCARI      MOCLDY    54   8  16 SW14      29.82S
$$

USA.gov is the U.S. government's official web portal to all federal, state and local government web resources and services.